When you browse on this site, cookies collect data to enhance your experience and personalize the content and advertising you see.
Visit our Privacy Policy to learn more. By continuing to use the site, you agree to this use of cookies and data.
  • In Hungary
  • List of Countries
  • For 7 days
  • Water Temperature
  • Weather Map
  • News
  • Weather Widgets
  • user-avatar
    Login

    Hourly Weather Abha

    Today, 29 March, Sunday

    Time Temperature Precipitation Wind Pressure Humidity
    00:00 +24°C° 0 mm 1 mps 643 mmHg 54%
    01:00 +23°C° 0 mm 1 mps 642 mmHg 59%
    02:00 +23°C° 0 mm 1 mps 642 mmHg 65%
    03:00 +21°C° 0 mm 2 mps 641 mmHg 71%
    04:00 +21°C° 0 mm 2 mps 641 mmHg 73%
    05:00 +20°C° 0 mm 2 mps 642 mmHg 76%
    06:00 +20°C° 0 mm 2 mps 642 mmHg 78%
    07:00 +21°C° 0 mm 3 mps 642 mmHg 72%
    08:00 +22°C° 0 mm 3 mps 642 mmHg 66%
    09:00 +23°C° 0 mm 4 mps 643 mmHg 57%
    10:00 +25°C° 0 mm 4 mps 643 mmHg 54%
    11:00 +25°C° 0 mm 5 mps 643 mmHg 51%
    12:00 +26°C° 0 mm 5 mps 644 mmHg 48%
    13:00 +26°C° 0 mm 5 mps 643 mmHg 49%
    14:00 +26°C° 0 mm 5 mps 643 mmHg 49%
    15:00 +26°C° 0 mm 5 mps 642 mmHg 50%
    16:00 +26°C° 0 mm 5 mps 642 mmHg 53%
    17:00 +25°C° 0 mm 4 mps 642 mmHg 56%
    18:00 +23°C° 0 mm 4 mps 642 mmHg 58%
    19:00 +24°C° 0 mm 3 mps 642 mmHg 60%
    20:00 +24°C° 0 mm 2 mps 643 mmHg 61%
    21:00 +23°C° 0 mm 1 mps 643 mmHg 63%
    22:00 +23°C° 0 mm 1 mps 643 mmHg 62%
    23:00 +23°C° 0 mm 1 mps 643 mmHg 62%

    Tomorrow, 30 March, Monday

    Time Temperature Precipitation Wind Pressure Humidity
    00:00 +23°C° 0 mm 2 mps 642 mmHg 61%
    01:00 +21°C° 0 mm 2 mps 642 mmHg 63%
    02:00 +22°C° 0 mm 1 mps 641 mmHg 64%
    03:00 +22°C° 0 mm 1 mps 641 mmHg 66%
    04:00 +21°C° 0 mm 1 mps 641 mmHg 68%
    05:00 +21°C° 0 mm 1 mps 641 mmHg 70%
    06:00 +21°C° 0 mm 1 mps 642 mmHg 72%
    07:00 +21°C° 0 mm 2 mps 642 mmHg 67%
    08:00 +23°C° 0 mm 2 mps 643 mmHg 63%
    09:00 +24°C° 0 mm 3 mps 644 mmHg 58%
    10:00 +25°C° 0 mm 3 mps 644 mmHg 55%
    11:00 +26°C° 0 mm 4 mps 644 mmHg 52%
    12:00 +27°C° 0 mm 4 mps 644 mmHg 49%
    13:00 +27°C° 0 mm 4 mps 644 mmHg 49%
    14:00 +27°C° 0 mm 4 mps 643 mmHg 50%
    15:00 +27°C° 0 mm 4 mps 643 mmHg 50%
    16:00 +26°C° 0 mm 4 mps 643 mmHg 52%
    17:00 +26°C° 0 mm 3 mps 643 mmHg 55%
    18:00 +25°C° 0 mm 3 mps 642 mmHg 57%
    19:00 +25°C° 0 mm 2 mps 643 mmHg 58%
    20:00 +24°C° 0 mm 1 mps 643 mmHg 59%
    21:00 +24°C° 0 mm 1 mps 644 mmHg 60%
    22:00 +24°C° 0 mm 1 mps 643 mmHg 60%
    23:00 +21°C° 0 mm 0 mps 643 mmHg 61%

    Day after tomorrow, 31 March, Tuesday

    Time Temperature Precipitation Wind Pressure Humidity
    00:00 +21°C° 0 mm 0 mps 643 mmHg 61%
    01:00 +21°C° 0 mm 0 mps 643 mmHg 61%
    02:00 +20°C° 0 mm 0 mps 642 mmHg 62%
    03:00 +22°C° 0 mm 1 mps 642 mmHg 62%
    04:00 +19°C° 0 mm 0 mps 642 mmHg 64%
    05:00 +19°C° 0 mm 0 mps 642 mmHg 66%
    06:00 +19°C° 0 mm 0 mps 643 mmHg 68%
    07:00 +22°C° 0 mm 1 mps 643 mmHg 61%
    08:00 +24°C° 0 mm 2 mps 644 mmHg 55%
    09:00 +25°C° 0 mm 2 mps 645 mmHg 49%
    10:00 +26°C° 0 mm 3 mps 645 mmHg 46%
    11:00 +27°C° 0 mm 3 mps 645 mmHg 43%
    12:00 +28°C° 0 mm 4 mps 645 mmHg 40%
    13:00 +28°C° 0 mm 4 mps 645 mmHg 40%
    14:00 +28°C° 0 mm 4 mps 644 mmHg 40%
    15:00 +29°C° 0 mm 4 mps 644 mmHg 40%
    16:00 +28°C° 0 mm 4 mps 644 mmHg 44%
    17:00 +27°C° 0 mm 3 mps 644 mmHg 48%
    18:00 +26°C° 0 mm 3 mps 644 mmHg 52%
    19:00 +26°C° 0 mm 2 mps 644 mmHg 55%
    20:00 +25°C° 0 mm 2 mps 644 mmHg 58%
    21:00 +25°C° 0 mm 1 mps 644 mmHg 60%
    22:00 +25°C° 0 mm 1 mps 644 mmHg 60%
    23:00 +25°C° 0 mm 1 mps 644 mmHg 60%

    1 April, Wednesday

    Time Temperature Precipitation Wind Pressure Humidity
    00:00 +25°C° 0 mm 1 mps 644 mmHg 59%
    01:00 +24°C° 0 mm 1 mps 644 mmHg 60%
    02:00 +24°C° 0 mm 1 mps 644 mmHg 62%
    03:00 +23°C° 0 mm 1 mps 643 mmHg 63%
    04:00 +23°C° 0 mm 1 mps 643 mmHg 64%
    05:00 +23°C° 0 mm 1 mps 643 mmHg 65%
    06:00 +23°C° 0 mm 1 mps 643 mmHg 66%
    07:00 +24°C° 0 mm 2 mps 644 mmHg 61%
    08:00 +25°C° 0 mm 3 mps 645 mmHg 56%
    09:00 +26°C° 0 mm 3 mps 645 mmHg 50%
    10:00 +27°C° 0 mm 4 mps 645 mmHg 49%
    11:00 +28°C° 0 mm 4 mps 645 mmHg 47%
    12:00 +29°C° 0 mm 4 mps 645 mmHg 45%
    13:00 +29°C° 0 mm 4 mps 645 mmHg 44%
    14:00 +29°C° 0 mm 4 mps 644 mmHg 44%
    15:00 +29°C° 0 mm 4 mps 644 mmHg 43%
    16:00 +29°C° 0 mm 4 mps 644 mmHg 47%
    17:00 +28°C° 0 mm 3 mps 643 mmHg 51%
    18:00 +27°C° 0 mm 3 mps 643 mmHg 55%
    19:00 +26°C° 0 mm 2 mps 643 mmHg 57%
    20:00 +26°C° 0 mm 2 mps 644 mmHg 60%
    21:00 +26°C° 0 mm 1 mps 644 mmHg 62%
    22:00 +25°C° 0 mm 1 mps 644 mmHg 62%
    23:00 +23°C° 0 mm 0 mps 644 mmHg 63%

    2 April, Thursday

    Time Temperature Precipitation Wind Pressure Humidity
    00:00 +23°C° 0 mm 0 mps 644 mmHg 63%
    01:00 +23°C° 0 mm 0 mps 643 mmHg 63%
    02:00 +23°C° 0 mm 0 mps 643 mmHg 62%
    03:00 +22°C° 0 mm 0 mps 643 mmHg 62%
    04:00 +22°C° 0 mm 0 mps 643 mmHg 64%
    05:00 +23°C° 0 mm 1 mps 643 mmHg 66%
    06:00 +23°C° 0 mm 1 mps 643 mmHg 68%
    07:00 +24°C° 0 mm 1 mps 644 mmHg 61%
    08:00 +25°C° 0 mm 1 mps 644 mmHg 55%
    09:00 +27°C° 0 mm 1 mps 645 mmHg 49%
    10:00 +27°C° 0 mm 2 mps 645 mmHg 46%
    11:00 +28°C° 0 mm 3 mps 645 mmHg 44%
    12:00 +29°C° 0 mm 4 mps 645 mmHg 42%
    13:00 +29°C° 0.2 mm 4 mps 644 mmHg 44%
    14:00 +29°C° 0.2 mm 4 mps 644 mmHg 46%
    15:00 +29°C° 0.2 mm 4 mps 643 mmHg 48%
    16:00 +28°C° 0 mm 3 mps 643 mmHg 52%
    17:00 +27°C° 0 mm 3 mps 643 mmHg 56%
    18:00 +26°C° 0 mm 2 mps 642 mmHg 59%
    19:00 +26°C° 0.1 mm 2 mps 643 mmHg 60%
    20:00 +26°C° 0.1 mm 1 mps 643 mmHg 61%
    21:00 +26°C° 0.1 mm 1 mps 644 mmHg 62%
    22:00 +25°C° 0 mm 1 mps 644 mmHg 62%
    23:00 +25°C° 0 mm 1 mps 644 mmHg 63%

    3 April, Friday

    Time Temperature Precipitation Wind Pressure Humidity
    00:00 +25°C° 0 mm 1 mps 644 mmHg 64%
    01:00 +24°C° 0 mm 1 mps 643 mmHg 63%
    02:00 +24°C° 0 mm 1 mps 643 mmHg 61%
    03:00 +24°C° 0 mm 1 mps 642 mmHg 60%
    04:00 +24°C° 0 mm 1 mps 643 mmHg 58%
    05:00 +24°C° 0 mm 1 mps 643 mmHg 57%
    06:00 +24°C° 0 mm 1 mps 643 mmHg 55%
    07:00 +25°C° 0 mm 1 mps 644 mmHg 50%
    08:00 +26°C° 0 mm 2 mps 644 mmHg 45%
    09:00 +27°C° 0 mm 2 mps 645 mmHg 40%
    10:00 +28°C° 0 mm 2 mps 645 mmHg 39%
    11:00 +29°C° 0 mm 3 mps 645 mmHg 38%
    12:00 +30°C° 0 mm 3 mps 645 mmHg 37%
    13:00 +29°C° 0.2 mm 3 mps 644 mmHg 41%
    14:00 +29°C° 0.2 mm 3 mps 644 mmHg 44%
    15:00 +29°C° 0.2 mm 3 mps 643 mmHg 48%
    16:00 +28°C° 0.6 mm 3 mps 643 mmHg 50%
    17:00 +27°C° 0.6 mm 2 mps 643 mmHg 53%
    18:00 +27°C° 0.6 mm 2 mps 643 mmHg 55%
    19:00 +26°C° 0.1 mm 1 mps 643 mmHg 55%
    20:00 +26°C° 0.1 mm 1 mps 643 mmHg 56%
    21:00 +25°C° 0.1 mm 1 mps 644 mmHg 56%
    22:00 +23°C° 0 mm 0 mps 643 mmHg 55%
    23:00 +23°C° 0 mm 0 mps 643 mmHg 55%
    Show more